FENGYUN 1C DEB, 31952

Orbit data source: Space-Track

FENGYUN 1C DEB, 31952 is space debris in SSO originally from a launch on Mon, 10 May 1999 UTC launched from the Taiyaun Space Center, China (TSC). Fengyun 1C debris stems from the Chinese weather satellite Fengyun-1C, which was intentionally destroyed by a Chinese anti-satellite missile in 2007. This event dramatically increased the amount of space debris, with thousands of trackable fragments posing hazards to satellites and human spaceflight. The Fengyun 1C debris cloud has become a focal point in discussions about space sustainability and the need for international regulations to prevent the creation of new debris.

Loading next visibility...
Identifier
31952, 1999-025CND
Orbit
SSO
Country
Flag of CNCN / PRC
Related business
Manufacturer
Unknown
Mission
Spacecraft
Bus & Motor
Unknown
Mass
Unknown
Launch date (UTC)
1999-05-10 (27 years ago)
Launch vehicle
Unknown
Launch site
Taiyaun Space Center, China (TSC)
Object type
Payload
Rocket body
Debris
Shape & HBR
Unknown shape, 0.1 m
Radar Cross Section
Small (<0.1 m²)

Expand to show TLE details & history
Last TLE update: 21 hours ago

TLE from 21 hours ago
0 FENGYUN 1C DEB
1 31952U 99025CND 25353.55562471  .00001551  00000-0  35415-3 0  9991
2 31952  98.9558 111.1205 0114012 271.7452  87.0687 14.53522347973083
Epoch: 2025-12-19T13:20Z
TLE epoch observation values (Epoch: 2025-12-19T13:20:05.974Z)
Latitude
-0.00001°
Longitude
-177.29948°
Altitude
713.904 km
Speed
7.5 km/s
True Right ascension
07h 24m 28s
True Declination
0° 00' 00"
Sunlit
Object was in full shadow at epoch
Visualization orbit readout
Latitude
Unknown
Longitude
Unknown
Altitude
Unknown
Speed
Unknown
Apparent Right ascension
Unknown
Apparent Declination
Unknown
Sunlit
N/A
Visualization observer readout
Local Sidereal Time
09:08:00
Azimuth
Unknown
Elevation
Unknown
Doppler factor
Unknown
Orbital elements
Apogee altitude
792.121 km
Perigee altitude
630.465 km
Semi-major axis
7,089.43 km
Eccentricity
0.0114
Inclination
98.9558°
RAAN
111.1205°
Arg. of periapsis
271.7452°
True anomaly
88.37431°
Mean anomaly
87.0687°
Eccentric anomaly
87.72142°
Mean motion
3.63602 °/min
Orbital period
99.01 mins
BSTAR
0.00035415
Loading maneuver chart data...
Computing Atmospheric mass density...

Documentation

Showing up to 5 results
|